Showing default

PEXT, 64874

Orbit data source: Space-Track

PEXT, 64874 is an American payload satellite in SSO that was launched on Wed, 23 Jul 2025 UTC via an FALCON 9 launch vehicle from the Air Force Western Test Range (AFWTR). Payload-class satellites include a variety of spacecraft equipped with specific instruments for various scientific and technological missions. These include communications satellites like Starlink; space stations such as the ISS; scientific satellites like the Hubble; Earth observation satellites from companies like Planet Labs, Umbra, and HawkEye 360; GPS; miniature CubeSats for education and research; and military/defense satellites.

Loading next visibility...
Identifier
64874, 2025-154F
Orbit
SSO
Country
Flag of USUS
Related business
Manufacturer
York Space Sys
Mission
Operational spacecraft
Bus & Motor
S-CLASS, Unknown motor
Mass
140 kg wet, 140 kg dry
Launch date (UTC)
2025-07-23 (1 month ago)
Launch vehicle
FALCON 9
Launch site
Air Force Western Test Range (AFWTR)
Object type
Payload
Rocket body
Debris
Shape & HBR
Unknown
Radar Cross Section
Large (>1 m²)

Expand to show TLE details & history
Last TLE update: 6 hours ago

TLE from 6 hours ago
0 PEXT
1 64874U 25154F   25242.91246744  .00007643  00000-0  38187-3 0  9998
2 64874  97.4367 308.2012 0002493 185.7811 174.3394 15.17738759  5775
Epoch: 2025-08-30T21:53Z
TLE epoch observation values (Epoch: 2025-08-30T21:53:57.186Z)
Latitude
-0.00009°
Longitude
0.37298°
Altitude
517.473 km
Speed
7.604 km/s
True Right ascension
20h 32m 48s
True Declination
0° 00' 00"
Sunlit
Object was in full shadow at epoch
Visualization orbit readout
Latitude
Unknown
Longitude
Unknown
Altitude
Unknown
Speed
Unknown
Apparent Right ascension
Unknown
Apparent Declination
Unknown
Sunlit
N/A
Visualization observer readout
Local Sidereal Time
19:16:46
Azimuth
Unknown
Elevation
Unknown
Doppler factor
Unknown
Orbital elements
Apogee altitude
511.364 km
Perigee altitude
507.929 km
Semi-major axis
6,887.784 km
Eccentricity
0.00025
Inclination
97.4367°
RAAN
308.2012°
Arg. of periapsis
185.7811°
True anomaly
174.34222°
Mean anomaly
174.3394°
Eccentric anomaly
174.34081°
Mean motion
3.79685 °/min
Orbital period
94.82 mins
BSTAR
0.00038187
Loading maneuver chart data...
Computing Atmospheric mass density...
Loading historical data...
Loading historical data...
Loading historical data...
Loading historical data...
Loading historical data...
Loading historical data...
Loading historical data...

Documentation

Showing up to 5 results
|